Location: B�rgermoos
(47.6500°N, 9.0667°E)
Time: 17:44:50
(UTC+00:00)

Tiros 1 - Pass Details

Date: 04 August 2021
Orbit: 630 x 663 km, 48.4° (Epoch: 20 September)

Event Time Altitude Azimuth Distance (km) Brightness Sun altitude
Rises 19:21:09 0° 275° (W) 2,983 11.9 -4.8°
Reaches altitude 10° 19:23:30 10° 277° (W) 2,066 11.0 -5.2°
Maximum altitude 19:28:17 83° 5° (N) 661 7.3 -5.9°
Drops below altitude 10° 19:33:01 10° 94° (E) 2,043 9.2 -6.5°
Enters shadow 19:34:12 - 95° (E) 2,500 9.6 -6.7°
Sets 19:35:20 0° 95° (E) 2,947 - -6.8°
